Regional Weather Roundup
Issued by NWS Mobile, AL

Home | Current Version | Previous Version | Text Only | Print | Product List | Glossary On
Versions: 1 2 3 4 5 6 7 8 9 10 11 12 13 14 15 16 17 18 19 20 21 22 23 24 25 26 27
000
ASUS44 KMOB 050912
RWRMOB
REGIONAL WEATHER ROUNDUP
NATIONAL WEATHER SERVICE MOBILE AL
400 AM CDT THU MAY 05 2016

NOTE: "FAIR" INDICATES FEW OR NO CLOUDS BELOW 12,000 FEET WITH NO
      SIGNIFICANT WEATHER AND/OR OBSTRUCTIONS TO VISIBILITY.

  * THESE STATIONS ARE PART OF THE UNIVERSITY OF SOUTH ALABAMA
    MESONET AND ARE NOT UNDER NWS OR FAA QUALITY CONTROL.

ALZ061>064-051000-
COASTAL ALABAMA

CITY           SKY/WX    TMP DP  RH WIND       PRES   REMARKS
MOBILE REG APT PTCLDY    59  53  80 W5        29.83S
BROOKLEY FIELD PTCLDY    63  51  65 W6        29.83S
USA CAMPUS*    NOT AVBL
DOG RIVER*     NOT AVBL


CITY           SKY/WX    TMP DP  RH WIND       PRES   REMARKS
MOUNT VERNON*  NOT AVBL
SARALAND*      NOT AVBL
BAY MINETTE*   NOT AVBL
LOXLEY*        NOT AVBL
ROBERTSDALE*   NOT AVBL
FAIRHOPE*      NOT AVBL
ELBERTA*       NOT AVBL
FOLEY*         NOT AVBL
GRAND BAY*     NOT AVBL
DAUPHIN ISLND* NOT AVBL
BON SCOUR NWR* NOT AVBL
GULF SHORES    PTCLDY    69  53  58 NW9       29.81R

$$

ALZ051>060-051000-
INTERIOR SOUTHWEST AND SOUTH CENTRAL ALABAMA

CITY           SKY/WX    TMP DP  RH WIND       PRES   REMARKS
GREENVILLE     CLEAR     56  51  84 N5        29.80S
EVERGREEN      CLEAR     55  53  93 CALM      29.81S
CASTLEBERRY*   NOT AVBL
ATMORE*        NOT AVBL
DIXIE*         NOT AVBL
ANDALUSIA/OPP  CLEAR     61  53  75 NW3       29.80S
ANDALUSIA*     NOT AVBL
FLORALA APT    CLEAR     55  51  86 CALM      29.81S
FLORALA*       NOT AVBL

$$

FLZ001>006-051000-
WESTERN FLORIDA PANHANDLE

CITY           SKY/WX    TMP DP  RH WIND       PRES   REMARKS
PENSACOLA      PTCLDY    62  52  69 NW7       29.80S
NAS PENSACOLA  NOT AVBL
MILTON         CLEAR     58  52  80 NW3       29.80S
WHTNG S FIELD  PTCLDY    61  53  75 NW3       29.80S


CITY           SKY/WX    TMP DP  RH WIND       PRES   REMARKS
WALNUT HILL*   NOT AVBL
JAY*           NOT AVBL
DUKE FIELD     MOCLDY    60  50  69 W5        29.78S
CRESTVIEW      PTCLDY    57  51  80 CALM      29.81S
VALPARAISO     PTCLDY    61  51  69 NW5       29.79S
DESTIN         CLOUDY    68  53  58 NW5       29.79S

$$

MSZ076-079-051000-
INTERIOR SOUTHEAST MISSISSIPPI

CITY           SKY/WX    TMP DP  RH WIND       PRES   REMARKS
LEAKESVILLE*   NOT AVBL
AGRICOLA*      NOT AVBL

$$

MARINE OBSERVATIONS

STATION/POSITION TIME  TEMP    WIND        PRES    WAVE
                       AIR SEA DIR/SP/G            HT/PER
                 (UTC) (F)     (DEG/KT/KT) (MB)    (FT/S)
PASCAGOULA       0800   68     290/  8/ 10 1009.2F
PETIT BOIS ISLND 0800   71     280/ 19/ 22 1010.3F
GRAND BAY        0700   68     290/  5     1012.0S
KATRINA CUT      0800   74     290/ 21       N/A
CEDAR POINT      0800   73     290/ 19     1008.8F
E DAUPHIN ISLAND 0800   73     280/ 11/ 13 1009.2F
MIDDLE BAY LIGHT 0800   71     270/ 20     1009.1F
USCG MOBILE BAY  0800   65 74              1010.0F
STATE DOCKS      0800   65                 1009.3F
MEAHER PARK      0800   66     290/  9     1009.1S
WEEKS BAY        0700   62                   N/A
FORT MORGAN      0800   73     300/ 18/ 21 1008.6F
12 S ORANGE BCH  0850   74 75  280/ 19/ 23 1008.0F   3/ 5
PENSACOLA BAY    0800          300/  5/ 10 1009.1F
64 S DAUPHIN ISL 0800   74 75  280/ 16/ 19 1010.4F

$$

SELECTED LOCATIONS ACROSS THE REGION

CITY           SKY/WX    TMP DP  RH WIND       PRES   REMARKS
NEW ORLEANS    CLEAR     63  56  78 W6        29.86S
GULFPORT       PTCLDY    62  52  69 NW8       29.83R
PASCAGOULA AP  PTCLDY    61  52  72 NW3       29.83R
PASCAGOULA*    NOT AVBL
HATTIESBURG    PTCLDY    59  51  75 NW3       29.85S
LAUREL         CLEAR     57  48  72 W5        29.85S
MERIDIAN       CLEAR     54  52  93 CALM      29.86R
JACKSON        CLEAR     57  50  77 N7        29.86R
MONTGOMERY     PTCLDY    56  53  90 W3        29.81S
TROY           PTCLDY    56  53  90 NW5       29.81R
KINSTON*       NOT AVBL
GENEVA*        NOT AVBL
ASHFORD*       NOT AVBL
DOTHAN         CLEAR     57  53  86 NW7       29.82R
PANAMA CITY    PTCLDY    59  51  75 W3        29.77F

$$





USA.gov is the U.S. government's official web portal to all federal, state and local government web resources and services.